Wind_Speed
39 39 45 50 50 52 48 47 42 21 18 28 25 25 28 25 22 25 29 23 15 19 26 29 28 26 25 23 20 19 20 21 21 21 20 19 17 15 14 15 16 15 15 15 16 15 12 13 13 12 16 19 18 17 18 18 18 20 23 25 25 24 22 20 18 16 13 9 9 11 15 17 18 20 19 16 15 14 15 14 13 11 10 9 9 8
37 41 49 51 47 48 46 44 43 28 17 24 24 22 26 27 21 18 22 24 19 17 19 22 25 25 22 22 23 23 23 23 22 21 20 19 17 15 15 17 17 16 17 18 18 16 14 15 16 15 17 20 19 18 19 19 20 22 24 26 26 24 22 20 19 15 11 9 9 12 15 17 19 19 17 16 15 15 15 14 12 10 10 10 9 7
38 45 47 46 44 43 43 42 42 35 22 21 23 21 23 27 25 18 17 21 21 19 17 17 21 22 21 21 23 24 24 22 21 21 20 21 21 19 18 18 19 18 19 21 18 16 16 17 17 17 17 19 19 19 19 21 22 24 26 27 26 25 23 21 17 13 10 9 11 14 17 18 18 18 17 16 16 15 15 13 11 10 9 9 8 7
37 40 42 41 41 41 40 39 40 38 28 21 21 22 21 23 25 19 16 18 19 18 18 16 17 19 20 21 24 23 23 23 21 21 22 24 24 20 19 19 19 20 21 20 18 16 17 18 19 18 17 18 19 19 21 23 25 25 26 27 26 25 24 20 17 13 11 11 14 17 18 19 19 19 18 17 16 15 13 12 10 9 9 9 7 6
32 29 36 39 37 37 37 36 39 41 36 26 20 21 20 20 21 18 15 17 19 17 17 16 15 19 23 23 24 25 25 26 24 23 23 24 24 21 20 20 19 19 20 18 17 16 17 18 18 17 17 18 18 20 22 25 26 26 26 26 25 26 25 20 17 14 12 14 17 19 20 20 20 19 18 17 15 13 12 11 10 9 9 7 5 6
31 20 28 37 36 35 34 35 39 41 39 33 25 22 19 18 18 16 14 16 18 16 17 18 12 14 25 28 27 27 27 28 27 25 24 23 24 23 22 20 19 19 19 19 18 18 19 18 18 18 18 18 18 21 24 26 27 26 25 25 25 27 25 21 19 16 14 16 18 19 19 19 18 17 15 14 13 12 12 11 11 10 8 6 5 6
34 20 20 32 37 36 33 33 37 39 38 36 32 26 21 19 18 17 16 12 12 14 15 19 14 11 20 27 27 28 28 28 28 26 25 24 24 24 22 20 20 20 20 20 20 21 22 20 19 18 18 18 19 21 25 27 27 26 24 24 27 28 25 23 22 19 16 18 19 19 19 17 16 15 13 13 12 13 13 13 12 10 7 4 4 5
36 26 18 26 34 36 35 33 35 38 37 35 34 30 24 21 18 18 16 10 8 12 13 15 16 13 17 24 25 26 28 29 30 29 27 26 25 24 23 22 22 23 22 22 22 22 23 21 19 18 18 19 19 21 25 27 27 26 24 25 27 28 26 25 24 22 19 20 20 19 18 17 16 15 14 13 12 13 14 13 12 9 5 3 4 6
31 33 22 22 31 35 36 35 34 35 33 32 33 31 27 23 19 16 14 11 9 10 11 12 13 10 13 23 26 23 26 29 31 32 28 26 26 25 25 25 25 25 24 24 23 22 22 21 20 19 19 20 20 21 25 27 28 27 26 26 28 29 28 27 26 24 22 22 21 19 18 17 16 16 16 14 14 14 15 14 11 8 5 4 7 9
17 31 26 20 28 33 35 34 32 31 30 31 31 30 27 22 20 17 12 12 13 9 13 16 13 7 9 20 24 20 24 30 32 31 28 26 26 25 25 25 26 26 25 24 23 23 23 22 21 20 20 21 22 22 24 27 29 29 28 29 30 31 29 28 27 25 24 24 22 19 18 18 18 18 17 15 15 15 15 14 11 8 6 7 10 10
8 22 28 22 24 29 31 32 29 28 28 30 30 27 23 17 14 14 10 11 11 8 15 21 17 10 6 14 20 20 24 28 28 28 27 26 25 25 26 26 26 26 26 26 25 24 24 23 23 21 20 21 22 23 23 26 30 30 30 31 32 32 30 29 28 26 26 25 21 19 19 19 19 18 16 15 15 16 15 13 11 9 8 8 8 8
11 18 30 29 23 22 26 30 29 27 28 29 29 27 21 14 10 9 9 11 8 4 12 19 18 14 9 14 18 18 20 23 25 27 26 25 25 25 27 28 27 26 26 27 26 25 24 24 24 22 20 21 23 23 23 25 29 31 32 33 33 32 31 30 28 27 26 24 21 20 20 19 18 18 16 15 15 16 15 12 11 11 10 8 7 6
19 20 27 29 25 22 23 29 29 26 29 29 30 31 19 8 8 6 5 7 5 3 8 10 11 12 15 23 24 18 19 23 25 25 24 25 24 25 27 27 27 27 26 27 26 24 25 25 24 22 20 21 24 25 25 26 29 32 33 34 33 32 31 30 28 27 26 23 20 20 19 18 17 18 18 16 16 16 15 13 12 11 10 7 6 6
22 17 22 26 27 28 26 31 35 32 33 32 33 35 21 6 5 6 3 1 1 5 12 12 8 7 11 19 22 20 21 23 23 23 23 26 26 26 27 26 26 26 26 26 26 25 25 25 24 23 22 22 25 27 27 28 30 32 33 33 33 32 31 30 29 27 24 21 20 20 20 18 18 19 19 18 17 16 15 14 13 11 9 6 6 6
23 13 20 29 27 32 32 30 37 37 34 32 31 32 27 12 5 5 3 2 3 5 10 12 8 5 7 13 17 18 21 23 23 24 25 26 28 27 26 26 25 25 25 25 25 26 26 25 24 24 22 23 26 28 29 31 31 32 33 33 33 32 31 29 28 25 22 20 21 21 20 19 19 20 20 19 18 17 15 14 14 12 9 6 6 6
26 10 16 28 24 29 34 28 32 35 31 31 29 28 30 21 9 6 6 7 8 6 6 9 8 5 8 13 18 18 19 22 23 24 26 25 26 26 25 24 23 23 24 25 25 27 27 25 25 23 21 23 28 30 31 33 34 33 33 33 32 31 29 28 25 22 21 21 21 21 20 19 20 21 20 19 18 17 16 15 14 12 9 7 6 6
25 10 11 24 20 21 31 30 30 32 28 29 32 28 28 24 13 7 6 6 8 5 6 8 9 11 11 12 19 21 17 19 23 23 23 22 22 23 21 20 20 20 22 23 25 26 26 24 24 21 21 24 28 31 32 33 34 34 33 32 31 30 28 25 22 20 20 19 19 20 20 20 20 20 20 18 18 18 17 16 14 12 10 8 7 6
23 14 12 24 23 16 23 28 29 30 28 29 32 28 21 19 17 11 4 2 4 2 5 9 11 15 14 10 17 23 19 20 24 22 20 19 17 19 20 19 19 19 19 20 23 24 24 23 21 20 22 25 27 30 32 33 33 32 31 30 29 28 24 21 19 19 17 16 17 19 20 21 20 20 19 18 19 19 18 16 14 12 10 9 7 6
20 16 11 22 25 18 18 25 27 29 30 26 26 29 23 15 16 15 6 2 3 2 2 6 10 13 18 16 15 19 21 23 25 23 21 20 17 18 20 20 19 18 18 20 21 23 22 20 20 20 21 24 28 30 31 31 31 31 30 28 27 25 22 19 18 18 16 15 18 21 20 20 20 20 20 19 20 19 18 16 14 12 11 9 8 7
18 15 10 20 26 21 22 29 33 34 31 24 22 31 30 17 16 21 13 4 3 3 2 3 4 8 17 20 15 15 20 23 26 24 22 20 18 18 20 20 19 19 19 20 19 19 19 19 20 19 18 22 27 31 31 30 29 28 27 26 25 24 21 19 19 18 17 17 20 21 18 18 20 21 21 20 20 19 18 16 14 13 11 10 8 8
17 15 12 20 27 26 29 36 38 38 36 29 27 36 33 18 18 22 18 14 6 1 3 3 2 8 16 17 16 17 20 21 22 21 19 19 19 19 20 20 20 19 19 18 16 16 17 19 21 20 20 22 26 30 31 30 29 27 26 25 24 23 20 19 19 18 18 19 19 19 18 18 20 22 22 21 20 19 18 16 15 13 11 10 8 8
14 12 13 24 32 33 33 35 35 35 37 33 28 35 34 21 20 17 10 17 14 4 3 3 1 11 19 18 16 18 20 21 19 17 18 19 20 21 20 20 19 18 17 16 14 14 16 20 21 22 23 24 25 28 29 28 28 27 26 25 24 22 20 19 19 18 18 18 18 19 19 19 21 23 23 22 21 19 18 16 15 13 11 10 9 9
11 8 12 24 34 30 22 24 29 29 33 33 23 26 32 25 24 20 9 11 16 9 6 2 1 10 20 21 18 16 18 21 19 17 17 19 22 22 20 19 18 17 16 14 13 14 17 20 21 23 26 26 25 26 26 25 25 25 25 24 22 21 20 20 19 19 18 18 18 19 21 22 22 23 23 23 22 20 18 16 15 13 12 11 10 10
11 7 8 15 23 24 17 17 23 25 29 35 28 23 31 30 26 23 14 12 15 12 7 1 1 8 18 22 19 14 15 20 20 16 15 18 22 20 18 18 17 16 16 16 16 17 19 21 22 24 27 27 24 24 24 22 22 22 22 22 21 21 20 20 20 19 19 19 19 20 22 23 23 24 24 24 22 20 19 17 16 14 13 11 11 11
11 6 8 12 13 15 13 11 19 26 30 37 36 28 28 31 27 22 18 15 13 14 13 6 3 8 14 18 19 15 13 16 20 17 14 16 19 17 17 17 16 16 17 17 18 19 21 22 23 25 26 25 24 23 23 21 20 20 20 21 21 20 20 20 20 20 20 20 20 21 23 24 24 25 25 24 22 20 19 19 17 16 14 12 11 11
10 4 5 10 10 10 11 11 21 33 35 36 40 36 29 29 29 26 22 16 10 11 15 12 9 11 12 13 16 17 14 13 17 18 15 16 17 18 17 16 16 17 17 17 19 20 21 21 22 24 24 23 24 24 24 22 21 20 20 20 21 20 19 20 20 21 21 22 22 23 24 24 25 25 25 24 22 21 20 20 19 17 15 13 12 12
9 7 5 6 11 18 21 18 21 31 35 33 36 39 35 30 28 27 23 17 12 10 13 17 16 15 14 15 15 16 15 12 15 18 16 16 17 18 17 16 16 17 16 16 18 19 20 20 20 22 22 23 25 26 25 23 22 21 20 21 21 20 20 21 21 21 22 23 23 23 24 24 25 25 25 24 23 22 21 20 19 17 15 14 13 13
7 9 8 4 7 17 22 19 18 23 30 31 31 34 36 33 29 27 25 20 16 11 10 15 19 17 15 16 17 18 18 16 15 16 16 17 18 17 16 17 16 16 15 15 17 19 19 19 19 21 23 24 26 27 26 25 23 22 22 22 22 21 21 22 22 21 22 24 24 24 24 25 25 25 24 23 23 22 21 20 19 17 16 14 14 14
7 7 8 3 3 13 19 18 19 20 23 28 29 29 32 33 31 28 25 22 20 16 12 10 14 16 14 13 15 18 20 20 20 20 18 18 19 18 17 17 16 15 14 13 15 17 18 19 20 21 23 24 25 27 27 26 25 24 24 24 23 22 22 23 22 21 22 25 25 25 25 25 25 25 24 23 23 22 21 19 18 17 16 15 15 15
9 8 6 4 2 13 18 17 18 19 23 27 28 28 29 29 29 26 24 23 22 22 20 14 12 13 13 13 14 15 18 20 21 24 22 21 21 20 18 17 15 13 11 11 15 18 19 20 20 21 23 24 25 27 27 26 26 25 25 24 24 23 23 23 23 22 23 25 26 26 26 26 26 25 24 24 23 21 20 19 18 17 17 16 16 16
13 11 4 7 6 10 18 19 17 18 23 27 28 28 28 26 27 26 24 23 23 24 24 20 17 14 11 12 14 14 16 18 19 22 25 23 22 20 17 15 13 11 10 11 15 18 19 19 20 21 22 24 25 27 27 27 27 26 26 25 25 24 24 24 24 23 24 26 27 27 27 27 27 26 25 24 23 21 20 19 18 18 18 17 16 16
16 11 5 7 8 10 21 21 18 20 25 28 29 30 29 27 28 29 26 23 21 22 22 20 19 15 8 8 12 13 15 18 19 21 25 25 22 19 16 14 11 10 10 11 14 16 17 18 19 19 21 22 24 26 26 26 27 27 27 26 25 26 25 25 25 24 24 26 27 28 28 27 28 27 26 25 24 22 21 19 19 19 19 18 17 17
13 10 7 6 6 12 23 22 22 25 22 23 30 33 29 26 25 26 27 24 20 19 18 19 20 15 8 6 9 10 12 16 19 21 25 26 22 18 14 12 11 10 10 10 11 14 15 16 16 16 19 21 23 23 23 24 25 26 26 26 26 27 27 26 26 25 25 26 27 27 27 28 28 28 27 26 24 23 21 20 20 19 19 18 18 19
10 11 11 8 4 13 24 24 24 21 11 14 29 34 30 26 21 21 24 24 21 16 14 17 21 17 10 7 9 8 9 13 16 20 25 26 21 15 12 11 12 12 12 11 11 12 14 16 16 16 18 21 22 22 22 22 23 24 25 27 28 28 28 27 27 26 26 26 26 26 26 27 28 28 26 25 24 23 22 21 20 19 19 19 20 20
11 13 12 10 4 14 26 26 18 9 6 14 26 31 31 27 20 17 21 23 20 15 12 14 17 17 12 8 9 9 9 12 15 20 24 24 19 15 12 13 14 13 13 13 13 13 14 16 17 16 17 20 23 23 22 22 22 23 25 28 30 30 30 28 27 26 26 26 25 24 25 25 26 26 25 24 24 23 21 21 20 19 19 19 20 20
12 11 9 6 7 16 20 18 10 5 8 15 21 26 29 26 19 15 17 20 18 14 12 12 13 14 12 10 10 11 11 13 15 18 20 20 18 16 15 16 16 15 15 16 15 16 16 17 17 17 17 19 23 24 23 22 22 23 25 29 31 31 30 29 28 27 27 26 25 23 23 24 24 24 24 24 23 22 21 20 19 19 19 20 20 20
11 7 4 3 8 13 12 12 12 10 10 12 17 22 25 24 20 16 16 18 18 15 14 15 14 15 14 13 13 13 11 13 16 18 18 18 18 17 16 15 14 14 15 17 18 19 20 20 19 18 19 19 21 24 24 23 24 24 24 27 29 29 30 31 28 27 27 26 25 23 22 23 23 23 24 25 24 24 23 21 19 19 19 20 21 21
7 4 3 3 5 13 15 13 10 6 5 9 16 19 21 22 20 16 14 16 17 17 16 16 16 16 15 14 14 14 14 15 16 16 17 17 16 15 13 10 8 8 10 13 16 19 21 21 20 20 20 20 21 23 25 26 27 24 21 22 25 27 30 30 27 27 27 26 25 24 23 23 24 25 25 25 24 23 21 18 17 18 20 21 22 21
4 2 5 5 7 13 16 10 5 2 5 13 17 17 19 19 17 16 14 14 17 18 17 17 16 15 15 13 14 15 16 15 16 15 15 14 13 12 10 8 7 7 8 9 11 14 16 18 19 20 21 21 22 23 24 25 26 25 20 19 21 25 29 29 28 28 27 25 25 25 25 25 25 25 25 25 25 23 18 16 16 18 20 22 22 22
6 4 6 10 11 13 14 10 6 4 8 14 16 16 18 18 17 16 12 12 17 18 16 16 16 14 14 15 16 16 15 14 14 15 14 13 12 11 8 6 6 7 8 9 10 12 13 14 16 17 19 21 21 21 22 23 24 24 21 18 19 22 26 30 32 29 25 24 27 28 26 25 24 25 26 26 27 25 20 16 16 18 20 22 23 23
6 5 8 13 15 14 14 11 7 6 12 15 15 15 17 18 18 16 11 11 17 18 14 15 16 15 14 17 18 16 13 12 14 14 13 12 10 9 7 5 5 5 6 7 10 12 14 14 15 15 17 20 21 20 20 21 22 23 21 18 17 21 26 31 31 26 22 24 27 27 25 25 25 28 29 27 26 26 21 16 17 20 22 24 25 25
9 8 9 13 14 13 14 12 10 9 12 13 12 14 17 16 15 14 11 10 13 15 14 14 16 16 16 16 16 15 15 16 16 13 12 11 8 7 6 6 6 7 8 8 9 11 13 14 15 16 16 18 20 21 20 20 21 21 21 19 18 20 25 25 21 19 19 20 23 24 25 26 27 30 31 28 26 27 24 19 20 22 24 26 26 26
10 9 9 11 11 11 13 12 7 7 10 12 12 13 14 13 12 12 11 9 10 12 13 14 15 16 16 16 16 17 19 18 15 12 11 10 8 7 5 6 7 8 9 10 10 11 13 14 15 17 17 18 19 20 20 20 21 21 21 21 20 21 22 19 15 16 17 18 20 23 25 28 31 30 29 27 26 27 27 23 23 24 25 27 27 27
10 9 9 10 9 8 8 8 7 8 12 12 11 11 12 11 11 12 11 10 11 12 13 15 16 17 17 17 18 19 19 16 13 11 10 7 6 5 5 7 8 10 11 12 12 12 13 15 16 17 18 18 19 20 21 21 22 22 22 22 21 21 21 20 18 17 16 17 20 22 26 31 31 27 24 25 25 26 25 24 25 26 26 27 28 27
9 9 8 9 9 8 8 10 12 13 12 11 10 11 12 11 12 11 10 10 12 12 13 15 16 18 20 19 20 20 16 13 12 10 8 6 6 7 7 8 9 10 12 12 12 12 13 15 16 17 18 19 20 20 22 22 23 23 21 19 19 19 20 19 17 16 16 18 20 23 27 32 31 26 23 25 25 24 23 23 26 27 26 27 28 27
9 10 10 9 10 11 11 12 13 12 12 11 11 11 11 10 10 10 10 11 11 12 13 14 15 20 22 21 21 19 14 13 14 12 10 10 11 10 10 9 9 9 10 11 11 12 13 14 15 16 17 19 20 21 22 23 23 22 19 17 17 18 18 17 16 17 18 20 21 24 28 29 28 27 24 23 23 24 24 24 27 28 26 28 29 28
10 10 10 9 9 10 11 11 11 11 11 10 9 9 9 9 9 8 9 11 12 12 13 13 15 21 23 22 20 18 15 15 15 13 12 12 12 12 10 9 9 9 11 12 13 13 14 14 15 15 15 16 18 20 22 23 24 21 18 17 15 15 14 15 15 17 18 18 19 23 24 24 25 26 23 21 23 25 25 25 28 29 28 29 29 28
10 8 8 8 8 7 8 10 11 10 9 8 7 7 7 6 7 7 7 9 11 12 12 12 15 21 24 22 20 18 17 17 15 12 12 12 11 11 10 10 10 11 12 13 13 14 14 15 15 15 14 13 15 18 20 23 23 19 16 16 15 12 12 13 13 15 16 16 18 20 21 22 25 25 24 24 25 25 23 22 24 27 29 29 28 26
10 9 9 8 8 7 7 10 10 10 9 8 7 7 6 5 6 5 5 7 8 10 11 12 14 19 23 24 22 21 20 20 16 12 12 12 12 12 12 12 12 12 13 13 14 14 15 15 16 16 15 12 14 16 17 18 19 17 15 16 17 17 16 14 13 13 14 15 17 18 19 22 25 25 24 24 24 22 19 19 22 25 27 28 27 25
8 9 9 8 7 6 7 8 9 9 8 7 7 7 6 5 4 4 4 5 6 7 10 12 14 17 21 23 24 23 22 22 18 14 13 14 15 15 15 15 14 13 13 13 13 13 15 16 17 17 15 13 14 15 13 12 13 14 13 14 17 21 19 16 14 15 16 16 17 18 19 20 21 20 19 20 21 20 18 19 23 25 27 27 26 25
8 9 10 9 7 6 6 8 8 7 6 6 6 6 6 5 4 3 3 4 4 6 8 10 13 16 19 20 21 21 21 21 18 16 15 17 17 17 17 15 14 13 13 13 13 13 14 16 16 16 15 15 15 15 12 10 11 13 13 12 13 16 17 16 16 17 17 17 18 18 16 15 14 14 15 18 20 19 19 20 23 25 27 27 27 26
Wind_Direction
206 206 208 209 209 208 208 208 204 202 208 205 205 207 207 212 219 224 223 217 211 218 221 221 222 223 223 224 225 221 220 222 223 225 230 235 238 244 247 237 231 223 216 222 224 224 229 227 226 223 223 229 231 226 223 223 221 212 205 203 205 208 208 213 219 219 224 238 251 238 222 221 226 231 235 237 241 245 247 249 250 252 252 243 238 248
205 209 212 211 211 210 210 209 205 201 200 202 204 206 207 210 214 221 222 216 213 219 224 224 225 228 226 225 228 227 227 228 226 228 230 233 238 248 249 235 227 227 225 226 225 224 229 230 229 226 224 228 229 227 224 221 217 210 207 206 207 211 212 212 214 216 222 232 234 222 216 222 228 233 236 239 242 242 243 244 245 247 244 235 236 250
206 211 213 211 211 211 211 211 206 201 196 192 195 199 203 208 211 212 213 212 215 220 222 222 224 228 228 226 228 229 231 234 235 236 238 240 247 252 247 234 229 231 229 225 223 225 230 231 232 231 229 228 226 224 221 217 213 208 206 206 209 215 214 209 211 216 222 223 217 213 216 222 227 233 236 238 238 238 239 241 242 241 234 229 234 252
206 214 213 209 210 210 210 211 207 203 198 186 184 190 193 202 209 209 204 204 210 216 219 222 224 226 226 225 226 228 230 234 235 235 237 242 246 244 235 232 233 232 227 224 222 225 231 232 233 234 233 229 223 220 217 214 211 207 206 208 214 220 213 209 213 216 217 213 209 213 218 221 224 228 231 233 233 233 237 240 238 231 224 223 234 259
207 215 213 208 208 210 209 210 207 205 203 195 185 185 186 194 204 205 200 201 208 215 220 224 232 232 228 225 225 227 230 231 232 233 234 237 236 229 224 226 228 224 220 219 220 225 232 235 236 237 235 230 224 219 215 212 211 209 208 209 215 216 211 211 214 213 212 211 211 215 218 220 223 225 228 232 233 234 237 237 230 221 215 218 241 271
207 211 214 209 207 208 209 209 208 206 206 204 197 188 184 189 195 196 194 200 211 220 223 223 233 241 231 228 227 228 231 231 233 235 233 230 227 224 221 221 220 218 214 212 217 224 230 234 234 234 232 229 225 220 214 211 211 209 207 207 210 209 208 212 214 211 212 214 215 218 219 222 227 230 232 234 235 235 233 227 220 212 208 219 255 275
208 202 212 210 207 208 208 209 210 208 206 208 204 193 186 189 190 191 192 195 207 214 221 222 224 240 237 232 230 231 234 235 235 235 232 228 225 222 219 217 215 215 215 212 216 222 225 229 232 232 231 228 226 221 213 210 210 208 205 205 206 205 207 212 212 212 217 220 219 219 220 223 227 231 233 234 236 236 229 218 209 203 201 223 269 283
210 198 202 208 207 207 207 207 210 208 207 209 206 196 193 196 192 192 196 193 201 211 217 217 217 236 248 240 237 237 237 237 235 232 229 225 222 220 218 216 214 215 216 217 220 223 224 226 228 230 230 227 226 221 213 210 209 206 204 202 203 205 208 210 210 215 222 225 223 221 222 223 224 226 226 228 233 232 222 210 202 198 200 227 279 291
212 200 194 200 204 207 208 207 208 208 206 210 208 201 202 207 204 205 209 205 209 228 230 213 206 225 254 244 239 240 239 237 234 228 223 221 219 219 219 218 218 220 222 222 224 226 226 225 223 224 226 225 225 221 214 210 208 206 203 201 202 206 210 210 211 217 225 227 226 224 225 225 224 223 222 224 224 217 209 203 198 194 201 237 268 279
218 205 197 198 203 206 208 208 208 206 205 210 209 204 207 214 219 224 233 229 226 246 243 224 211 216 258 248 238 238 237 231 228 223 220 221 221 220 219 220 223 226 228 227 226 226 226 223 220 221 224 223 222 221 216 212 208 205 204 203 204 208 212 213 214 222 227 227 226 226 226 226 224 223 222 222 217 206 201 198 194 194 208 237 255 262
206 202 200 205 207 207 208 208 207 207 206 209 207 204 205 208 215 219 223 228 232 252 242 233 230 226 254 257 241 235 234 228 222 219 218 221 222 219 217 218 224 229 232 233 231 227 224 222 221 222 223 222 221 221 219 214 208 205 204 204 207 211 214 216 220 226 228 226 227 227 228 228 229 229 222 215 209 201 198 196 194 203 220 236 247 253
174 183 199 207 207 203 206 206 205 206 206 207 204 198 197 192 188 201 204 208 218 248 239 237 237 227 232 251 245 237 236 229 222 219 218 219 217 214 213 216 222 230 235 236 235 231 226 223 222 223 223 221 219 221 219 213 208 205 205 207 210 214 217 221 226 229 226 225 226 228 230 231 236 240 226 205 198 196 194 195 199 213 230 241 251 258
181 177 194 205 206 198 199 199 196 200 202 203 200 191 182 166 172 195 211 206 214 232 232 234 228 225 241 250 250 247 235 226 222 220 217 215 211 210 213 218 224 231 238 240 239 235 230 227 227 226 226 221 217 219 218 211 207 206 207 211 214 218 222 226 228 226 223 224 226 227 230 231 238 243 226 198 187 189 192 198 206 219 234 246 259 267
186 186 191 196 203 201 198 195 189 192 196 195 196 191 179 141 162 195 226 215 217 230 233 237 231 232 250 254 253 246 230 222 222 218 214 215 215 217 221 226 232 236 241 243 241 238 233 232 231 229 228 222 216 218 217 211 208 208 211 214 217 222 226 226 224 222 222 223 225 226 227 229 235 235 219 195 183 187 194 202 210 221 233 248 264 268
184 197 195 189 197 201 200 201 197 195 192 192 197 196 192 180 153 180 197 171 177 226 232 224 219 214 222 244 251 241 230 226 220 213 212 217 220 224 229 234 240 242 245 247 244 238 234 232 233 232 230 221 214 217 218 214 211 210 213 217 222 226 225 221 219 220 222 222 224 227 229 230 231 224 210 196 187 189 198 206 213 222 232 250 265 265
186 200 195 186 193 201 200 202 203 200 192 191 196 199 200 195 162 150 171 173 184 219 231 196 195 216 219 239 246 240 237 228 216 211 214 219 221 225 232 237 242 246 248 250 246 239 235 234 237 237 231 220 213 215 217 216 216 216 218 223 226 225 221 218 218 219 222 222 224 227 228 229 228 218 206 197 192 195 203 210 215 223 235 252 265 263
187 194 187 184 187 202 203 199 201 203 194 191 195 198 201 197 182 159 160 169 174 204 229 192 203 229 229 239 235 234 239 222 210 212 214 219 225 227 232 234 234 235 240 245 246 242 240 241 242 235 225 218 212 211 214 216 218 220 222 225 225 223 222 221 218 217 221 224 229 230 225 225 224 212 202 198 196 200 206 212 217 224 235 253 265 262
187 186 182 186 181 186 201 199 202 208 202 196 196 194 190 190 200 202 176 123 133 179 232 198 201 217 220 232 229 226 228 213 207 211 212 219 223 218 218 220 219 223 231 240 243 243 243 242 240 228 216 210 206 208 212 216 219 221 222 224 225 224 223 220 215 216 220 226 236 234 222 219 217 205 200 201 200 203 208 212 219 226 236 252 264 262
184 187 185 191 185 173 184 194 200 208 210 207 201 194 188 184 195 199 186 105 143 184 264 208 203 210 215 225 228 221 219 212 209 213 217 225 224 211 207 208 212 216 222 229 235 239 240 235 229 223 211 201 202 207 210 214 219 221 222 224 225 224 219 215 214 217 219 224 234 233 220 212 208 201 200 203 203 206 210 213 221 227 236 251 262 263
175 185 182 187 185 174 178 192 198 199 200 205 204 197 197 197 191 191 192 185 157 178 219 218 220 213 213 221 225 220 218 215 214 217 223 228 226 216 210 208 212 217 220 224 229 234 234 226 218 216 208 200 202 207 209 213 216 219 222 223 222 221 218 216 215 216 219 225 232 233 224 212 205 200 201 204 206 208 210 216 222 227 235 248 260 265
162 178 181 180 183 183 188 195 199 195 188 189 195 192 191 193 188 189 200 207 201 150 175 169 256 219 207 210 214 214 217 216 217 221 224 224 219 215 213 213 216 221 226 227 226 228 226 219 214 208 201 199 202 206 210 213 215 218 221 221 220 221 221 220 217 217 221 226 229 229 224 215 206 202 203 206 208 209 213 220 224 227 235 246 259 265
152 167 173 178 185 193 198 199 200 198 190 186 190 191 190 186 177 175 193 210 214 251 205 166 221 213 206 209 210 211 216 218 221 228 231 225 215 210 212 215 218 224 229 229 227 222 217 215 212 203 197 197 200 206 211 214 215 218 220 220 221 223 224 223 220 220 223 225 225 222 218 213 206 203 207 209 211 213 217 222 225 228 237 246 257 263
148 154 168 181 189 194 198 201 202 202 196 190 189 195 196 191 184 180 174 196 207 234 248 226 250 203 203 211 214 207 212 219 221 224 227 220 209 205 207 210 215 222 226 226 223 215 210 212 210 203 198 197 200 206 211 214 215 217 219 220 222 223 224 224 222 222 224 224 224 219 212 209 206 206 209 212 214 217 220 224 227 231 238 246 255 259
167 169 161 169 183 189 192 199 203 204 200 196 194 196 197 195 190 186 185 193 201 216 222 185 312 213 199 208 217 208 205 213 213 211 214 209 201 197 200 204 210 217 219 217 214 206 205 209 209 205 201 199 203 209 214 217 216 217 219 219 220 222 222 224 223 224 225 224 223 217 210 207 208 210 212 214 217 220 222 226 231 235 239 244 251 256
182 172 139 135 156 182 188 188 193 197 201 200 197 196 196 197 193 188 195 204 205 216 213 190 246 236 202 202 214 212 208 212 209 203 199 195 193 191 194 200 206 213 216 215 210 203 201 205 208 207 205 205 209 214 217 220 220 218 218 219 220 221 220 222 223 225 226 225 221 215 210 209 211 214 216 217 220 222 225 229 233 237 239 242 247 253
188 182 151 152 160 178 183 182 186 190 196 201 201 200 197 197 197 195 198 202 203 214 212 204 228 244 225 215 215 214 220 218 201 193 185 180 186 190 193 199 206 210 212 213 209 204 201 203 206 209 210 211 212 214 215 219 222 220 218 219 221 221 222 223 224 226 227 223 218 214 211 212 214 217 218 219 222 224 227 231 234 237 239 241 244 249
196 216 219 194 189 191 192 194 194 192 192 197 202 204 203 200 201 202 203 204 206 209 212 215 227 239 236 233 228 221 224 215 187 180 180 179 185 191 192 197 204 207 208 207 206 204 202 202 206 210 212 212 213 215 215 218 222 222 220 221 221 221 222 223 225 228 227 222 216 213 212 213 215 217 218 219 222 225 228 231 234 237 238 240 243 248
196 215 223 245 216 199 198 201 204 200 195 196 200 203 205 206 206 209 212 212 210 211 219 221 224 230 227 222 226 228 227 220 199 186 184 183 184 188 190 193 198 201 201 199 200 203 202 201 203 208 211 212 215 218 219 221 224 224 222 222 223 223 223 224 227 229 226 220 215 213 213 213 214 215 217 219 221 224 227 230 233 236 238 240 243 248
208 218 210 241 220 190 193 201 207 206 200 199 199 197 201 206 209 212 216 218 217 218 223 222 220 228 227 216 221 227 225 222 215 205 195 186 185 187 188 191 194 193 192 192 194 194 195 197 200 206 211 214 217 220 223 225 227 228 226 224 224 223 223 225 230 232 226 219 215 215 215 215 215 216 218 219 221 224 227 229 232 235 237 239 244 249
222 219 208 324 290 182 181 189 197 201 199 197 198 195 194 201 208 212 217 219 221 223 228 235 239 240 242 236 232 231 225 220 216 210 200 189 186 188 187 188 188 186 186 189 190 188 190 195 201 207 213 218 221 224 228 231 233 234 231 228 226 225 223 225 231 234 228 219 215 216 217 217 218 218 219 220 222 225 227 230 234 236 238 241 246 250
225 223 227 328 307 192 180 181 185 194 194 190 192 193 192 197 204 208 213 215 217 222 228 238 250 256 256 241 233 232 226 218 215 211 203 194 188 187 186 185 184 185 191 196 197 196 196 201 206 211 217 222 227 230 233 236 236 235 232 228 227 226 224 226 231 235 229 221 217 218 219 220 220 220 220 221 224 227 229 233 237 238 240 243 247 251
224 239 262 311 297 204 182 180 181 186 186 181 182 185 189 194 199 202 208 210 211 218 224 233 243 249 253 233 226 232 229 219 216 213 204 196 191 187 184 184 188 196 204 209 211 210 210 212 216 219 223 227 231 235 235 234 234 234 231 227 226 226 226 227 231 234 231 222 218 219 221 221 222 222 223 224 227 230 233 237 240 241 242 245 248 250
223 248 263 294 289 190 178 177 177 177 177 180 184 186 187 190 191 197 205 211 212 215 221 227 231 238 253 236 220 228 231 223 220 213 202 194 190 187 183 186 198 211 218 225 229 228 227 227 229 233 234 233 235 238 239 235 232 232 233 231 228 227 227 228 231 234 232 225 222 222 223 223 224 225 226 228 231 233 236 239 241 241 243 246 246 247
233 250 255 274 268 180 175 172 169 168 169 188 191 192 195 197 194 197 205 210 211 208 215 226 230 236 248 235 214 215 214 208 204 198 193 190 190 191 190 195 207 219 227 233 238 239 237 235 236 240 240 237 235 235 237 236 233 232 233 232 230 228 228 227 229 232 232 228 226 226 226 226 227 229 230 233 235 237 238 240 241 241 242 244 244 244
242 247 256 271 235 169 167 161 159 167 176 183 187 192 199 204 203 204 207 208 207 205 208 220 228 232 232 220 211 206 184 171 174 179 183 188 192 194 197 204 214 222 226 228 231 233 235 236 237 238 237 236 234 231 231 233 234 234 233 233 231 228 225 225 226 229 229 227 227 228 228 229 230 231 233 235 237 237 237 237 238 240 241 241 241 242
239 242 256 258 175 160 160 155 153 161 153 160 175 184 192 198 195 189 193 197 200 200 192 193 204 211 209 203 202 193 169 156 160 168 177 183 187 191 198 207 214 218 218 220 223 225 228 231 232 234 236 236 234 233 232 233 235 236 236 237 236 229 222 220 223 225 225 225 226 226 227 229 231 231 232 233 233 233 234 235 236 235 235 236 237 240
222 223 230 220 167 157 146 130 129 135 137 151 167 173 181 189 190 182 178 183 191 191 178 172 176 184 187 188 187 182 173 169 167 169 176 181 184 192 199 207 214 217 217 217 216 218 223 226 227 230 236 237 236 235 235 237 240 239 237 238 238 230 221 218 219 221 222 223 224 225 227 229 230 228 227 228 228 228 226 223 223 227 230 234 237 240
209 208 195 242 187 152 134 115 115 124 141 160 165 170 179 186 188 187 182 181 186 188 179 171 169 171 174 179 184 183 182 184 181 179 183 186 186 190 193 197 202 209 217 221 221 222 227 230 230 231 234 236 236 235 236 240 245 245 237 232 232 228 222 219 218 220 222 223 224 225 228 229 227 226 227 231 236 238 228 213 211 223 231 234 236 239
164 133 164 195 180 151 138 126 114 110 154 163 165 171 181 185 185 187 190 190 186 185 183 179 176 178 180 184 189 189 189 193 195 192 189 186 183 183 183 180 175 185 205 221 230 235 238 241 241 239 238 236 235 236 239 244 249 250 243 230 223 223 221 218 219 220 220 223 227 228 229 230 229 230 234 239 246 247 234 214 214 226 232 235 238 241
116 102 164 177 168 155 145 132 114 119 155 164 164 167 175 181 179 179 187 195 188 184 185 184 183 186 190 190 191 196 202 205 198 189 182 181 183 184 182 172 166 182 206 223 237 245 252 258 260 257 250 243 239 240 244 249 253 255 253 239 223 219 217 218 222 222 217 220 226 228 231 234 236 238 239 242 246 248 237 220 220 230 235 238 241 243
123 138 171 167 156 155 151 131 110 132 156 162 162 163 167 172 176 181 186 190 189 189 188 184 184 186 188 189 191 198 204 196 185 182 183 184 187 190 192 198 210 228 243 251 254 253 256 264 273 274 263 251 244 241 245 251 254 257 260 252 234 222 220 222 226 225 219 221 227 229 233 238 242 245 246 245 249 254 250 228 220 230 236 239 243 243
144 137 144 144 140 144 142 126 111 128 150 159 158 156 160 167 175 181 176 173 186 194 190 181 183 184 183 187 191 193 191 187 185 189 191 190 193 199 208 230 252 265 270 268 264 259 259 265 273 278 274 261 250 243 242 246 249 250 253 252 244 234 231 232 234 230 226 226 228 228 233 239 244 250 255 256 256 259 257 238 222 228 235 239 243 244
143 129 125 128 129 130 127 120 114 129 146 154 153 153 161 167 169 168 164 161 178 191 188 181 183 185 186 190 191 187 186 188 189 190 193 197 205 212 231 254 259 262 264 263 263 261 260 262 267 273 275 267 252 244 242 243 244 243 243 244 244 244 244 244 241 232 226 226 227 230 235 241 245 248 256 263 263 262 261 244 223 225 234 239 243 243
141 134 129 125 125 124 119 118 128 139 145 148 152 157 160 157 152 154 158 164 173 182 186 187 189 188 188 192 191 186 187 190 189 192 199 208 217 231 254 262 260 263 265 266 267 264 260 260 261 267 272 266 254 245 241 240 240 240 241 242 244 246 245 240 232 226 224 227 233 239 244 248 253 256 262 267 267 265 261 244 223 222 232 239 242 241
134 131 130 126 125 121 118 126 132 134 137 138 141 148 148 142 143 148 153 164 172 176 181 188 194 191 188 190 189 185 188 195 201 208 211 204 208 222 230 237 248 260 266 270 270 265 260 259 261 264 267 266 258 247 240 237 236 236 239 243 247 248 246 243 237 231 231 235 242 249 253 257 266 275 278 275 268 257 247 233 221 223 230 237 240 239
127 127 126 121 118 113 114 126 131 128 129 129 128 135 138 137 143 154 165 174 179 180 180 186 193 190 187 188 186 183 190 203 211 218 212 197 198 206 211 221 237 252 263 271 272 268 264 263 266 269 268 266 261 251 240 234 233 235 237 243 251 253 251 250 248 242 242 244 248 254 258 263 273 281 281 278 269 255 242 231 223 224 229 234 237 236
125 126 126 123 123 119 118 129 133 130 132 132 128 133 138 137 141 153 169 177 182 187 187 187 189 187 185 186 188 189 197 206 212 220 216 205 205 207 209 218 232 246 261 271 274 273 267 265 270 276 274 267 259 252 242 233 232 238 240 236 243 252 248 244 244 243 245 248 249 253 259 266 274 277 273 267 263 257 251 240 228 225 228 232 233 232
139 134 129 128 132 126 124 137 143 139 136 132 127 128 128 127 132 141 158 173 182 187 187 184 185 186 187 191 196 200 204 208 212 219 219 216 218 220 219 223 232 244 257 266 272 271 265 264 271 278 276 264 250 246 243 235 234 244 245 231 228 236 235 234 236 237 239 244 248 252 259 266 271 272 268 261 256 252 249 239 228 225 227 230 230 230
157 155 146 143 148 142 138 148 153 151 148 142 133 129 124 123 133 138 146 162 173 180 180 179 181 186 191 197 202 206 210 211 211 217 224 225 224 225 225 228 234 243 252 260 266 266 261 260 266 272 272 260 243 239 238 231 230 239 244 234 229 230 231 234 238 238 240 247 254 259 264 268 271 271 267 259 251 242 236 230 226 225 227 229 229 228
163 164 157 156 163 163 156 159 160 158 156 152 146 145 145 145 148 146 144 148 154 163 170 175 180 186 191 196 201 207 213 215 212 215 227 231 228 226 228 231 234 238 244 251 257 258 257 257 262 267 264 251 238 231 221 210 216 229 238 239 233 230 232 236 239 243 248 253 259 265 270 268 265 261 258 252 243 233 227 227 226 224 225 227 226 224
163 162 157 155 163 171 170 168 168 165 163 162 161 166 175 180 179 170 159 147 137 143 158 171 182 189 195 200 205 209 214 216 214 217 228 235 234 233 232 234 237 238 238 243 247 249 253 256 260 262 254 240 235 230 213 201 212 223 231 239 236 230 231 235 238 243 250 255 259 262 261 254 247 248 254 256 250 240 231 227 225 223 224 225 224 222
Height
3035 3036 3035 3034 3037 3041 3045 3050 3056 3060 3064 3067 3070 3073 3076 3079 3081 3083 3087 3091 3093 3093 3094 3096 3098 3100 3102 3104 3105 3106 3107 3109 3110 3112 3114 3115 3117 3119 3120 3121 3122 3124 3125 3126 3127 3128 3129 3129 3130 3131 3132 3133 3133 3134 3135 3136 3137 3138 3141 3142 3144 3146 3147 3149 3150 3152 3153 3154 3156 3157 3159 3160 3161 3162 3162 3163 3164 3165 3167 3168 3168 3169 3169 3170 3171 3171
3033 3030 3029 3033 3039 3044 3047 3051 3056 3061 3064 3067 3070 3073 3075 3078 3081 3083 3086 3090 3091 3092 3093 3095 3097 3098 3100 3102 3103 3104 3105 3106 3108 3110 3112 3114 3115 3117 3118 3119 3120 3121 3123 3124 3125 3126 3127 3128 3129 3130 3130 3131 3132 3132 3133 3135 3136 3137 3139 3141 3143 3144 3146 3148 3149 3150 3151 3153 3154 3156 3158 3159 3160 3161 3161 3162 3163 3165 3166 3167 3167 3168 3168 3169 3170 3170
3027 3025 3027 3034 3039 3044 3048 3051 3056 3061 3064 3066 3069 3072 3074 3077 3080 3083 3085 3088 3090 3091 3092 3094 3095 3097 3098 3099 3100 3102 3103 3104 3107 3109 3111 3112 3113 3114 3115 3116 3118 3119 3120 3121 3123 3124 3125 3126 3127 3128 3128 3129 3130 3131 3132 3133 3135 3136 3138 3139 3141 3143 3145 3147 3148 3149 3150 3151 3153 3155 3156 3157 3159 3159 3160 3161 3163 3164 3165 3165 3166 3167 3168 3169 3169 3169
3022 3023 3028 3034 3039 3043 3046 3050 3054 3060 3063 3065 3067 3070 3073 3075 3079 3082 3085 3087 3088 3090 3091 3092 3094 3095 3096 3097 3098 3099 3101 3103 3105 3106 3108 3109 3110 3111 3113 3114 3115 3116 3117 3119 3121 3122 3123 3124 3125 3126 3127 3128 3129 3130 3131 3132 3133 3135 3137 3138 3140 3142 3144 3146 3147 3148 3149 3150 3152 3154 3155 3156 3157 3158 3159 3161 3162 3163 3164 3165 3166 3167 3168 3168 3169 3169
3021 3024 3028 3034 3038 3041 3045 3048 3052 3057 3060 3063 3066 3069 3072 3075 3078 3081 3084 3086 3087 3088 3089 3091 3092 3092 3093 3094 3095 3097 3098 3100 3101 3103 3105 3106 3107 3109 3109 3111 3112 3113 3115 3116 3118 3120 3121 3122 3123 3125 3125 3126 3127 3128 3129 3130 3132 3134 3136 3138 3139 3141 3143 3145 3146 3147 3148 3150 3151 3153 3154 3155 3156 3157 3159 3160 3162 3162 3163 3164 3165 3166 3167 3168 3168 3168
3022 3025 3028 3033 3037 3040 3043 3046 3049 3054 3058 3062 3065 3068 3072 3075 3078 3081 3083 3084 3086 3087 3088 3089 3090 3089 3089 3091 3092 3094 3095 3097 3099 3100 3102 3103 3105 3106 3107 3108 3110 3111 3112 3114 3115 3117 3118 3120 3122 3123 3124 3125 3126 3127 3128 3129 3131 3133 3135 3137 3138 3140 3142 3144 3145 3146 3147 3149 3151 3152 3153 3154 3156 3157 3159 3160 3161 3162 3162 3163 3165 3166 3167 3167 3167 3167
3021 3026 3028 3031 3035 3039 3042 3045 3048 3053 3057 3060 3063 3068 3073 3075 3077 3080 3082 3083 3084 3085 3086 3087 3087 3086 3086 3088 3090 3091 3093 3094 3096 3097 3099 3100 3102 3103 3105 3106 3108 3109 3110 3112 3113 3114 3116 3118 3119 3121 3122 3124 3124 3125 3127 3128 3130 3132 3134 3136 3138 3140 3142 3143 3144 3145 3147 3148 3150 3151 3152 3154 3155 3157 3158 3159 3160 3161 3162 3163 3164 3166 3166 3167 3166 3166
3019 3025 3027 3030 3034 3037 3039 3043 3047 3051 3056 3059 3063 3069 3072 3074 3076 3078 3080 3082 3083 3084 3084 3085 3086 3086 3084 3084 3087 3088 3090 3091 3092 3094 3096 3097 3099 3101 3102 3104 3105 3107 3109 3110 3111 3112 3113 3116 3118 3120 3121 3122 3123 3124 3126 3128 3130 3131 3133 3135 3137 3139 3141 3142 3144 3145 3146 3147 3148 3150 3151 3153 3154 3156 3157 3158 3160 3161 3162 3163 3164 3165 3166 3166 3166 3166
3018 3023 3026 3028 3032 3035 3037 3042 3046 3051 3055 3059 3064 3069 3072 3074 3076 3078 3080 3081 3082 3083 3082 3082 3084 3084 3082 3081 3084 3085 3086 3087 3088 3090 3093 3094 3096 3098 3099 3101 3103 3104 3106 3107 3109 3110 3112 3114 3116 3118 3120 3121 3122 3123 3125 3126 3129 3131 3133 3134 3136 3138 3140 3142 3143 3144 3145 3146 3147 3149 3150 3152 3153 3154 3156 3158 3159 3160 3161 3163 3164 3165 3165 3165 3165 3165
3018 3022 3027 3029 3031 3033 3037 3043 3047 3051 3055 3059 3065 3069 3072 3074 3076 3078 3079 3080 3082 3081 3079 3080 3083 3083 3080 3078 3080 3082 3082 3083 3085 3088 3090 3091 3093 3095 3097 3099 3100 3102 3103 3105 3106 3108 3110 3112 3115 3116 3118 3119 3120 3122 3123 3125 3127 3129 3132 3134 3135 3137 3139 3141 3142 3143 3144 3145 3146 3148 3149 3151 3152 3153 3155 3157 3158 3159 3161 3163 3164 3164 3165 3165 3164 3164
3019 3023 3028 3029 3030 3033 3038 3044 3048 3051 3056 3060 3064 3068 3071 3074 3075 3077 3078 3079 3081 3078 3076 3078 3081 3082 3079 3074 3076 3078 3079 3080 3084 3086 3087 3088 3091 3092 3094 3096 3097 3099 3101 3102 3104 3105 3108 3111 3112 3114 3116 3117 3119 3120 3122 3123 3126 3128 3130 3132 3134 3136 3138 3140 3141 3142 3143 3144 3146 3147 3149 3150 3151 3153 3155 3156 3158 3160 3161 3162 3163 3164 3164 3164 3163 3164
3019 3022 3025 3027 3030 3034 3039 3043 3047 3051 3055 3058 3062 3066 3069 3072 3074 3076 3077 3077 3077 3075 3074 3077 3079 3081 3078 3072 3073 3076 3077 3080 3082 3083 3085 3086 3088 3090 3091 3093 3094 3096 3098 3099 3101 3104 3106 3108 3110 3112 3114 3115 3117 3118 3120 3122 3124 3126 3129 3131 3133 3135 3137 3138 3140 3141 3143 3144 3146 3147 3149 3150 3152 3154 3155 3155 3157 3160 3161 3162 3162 3163 3163 3162 3162 3163
3018 3019 3022 3026 3030 3034 3037 3041 3046 3050 3052 3055 3058 3062 3065 3070 3072 3074 3074 3074 3073 3073 3074 3076 3077 3078 3075 3071 3072 3074 3075 3077 3079 3081 3083 3085 3086 3088 3089 3090 3092 3094 3095 3097 3099 3102 3104 3106 3108 3110 3112 3114 3116 3117 3118 3120 3122 3125 3127 3129 3131 3133 3135 3137 3139 3140 3142 3143 3145 3147 3148 3150 3152 3154 3155 3155 3156 3159 3160 3161 3161 3162 3162 3162 3162 3162
3016 3019 3021 3024 3027 3031 3033 3035 3039 3042 3046 3050 3053 3055 3059 3063 3067 3071 3072 3072 3072 3072 3073 3075 3076 3075 3072 3071 3071 3072 3073 3075 3076 3078 3080 3082 3084 3085 3086 3088 3090 3092 3094 3095 3098 3100 3102 3104 3107 3109 3111 3113 3115 3117 3118 3120 3121 3123 3125 3127 3130 3132 3133 3135 3137 3139 3141 3143 3144 3145 3147 3149 3151 3153 3154 3155 3156 3157 3159 3160 3160 3161 3161 3161 3162 3162
3013 3016 3017 3019 3023 3027 3030 3033 3035 3039 3044 3048 3052 3055 3057 3058 3061 3066 3069 3069 3070 3071 3071 3073 3074 3071 3070 3070 3069 3070 3071 3072 3074 3076 3077 3079 3080 3082 3084 3086 3088 3090 3092 3094 3096 3098 3100 3103 3105 3107 3108 3111 3114 3116 3117 3119 3121 3122 3124 3126 3128 3130 3131 3133 3135 3138 3140 3142 3143 3144 3146 3148 3149 3151 3153 3154 3155 3157 3158 3159 3160 3160 3160 3161 3161 3162
3012 3013 3014 3018 3022 3025 3029 3033 3037 3040 3045 3049 3052 3054 3055 3057 3059 3062 3065 3066 3068 3070 3069 3070 3070 3068 3068 3069 3068 3068 3069 3070 3072 3074 3075 3076 3078 3080 3081 3083 3085 3088 3090 3092 3093 3095 3098 3101 3103 3104 3106 3109 3111 3113 3115 3117 3120 3121 3123 3125 3126 3128 3129 3132 3134 3136 3138 3140 3141 3143 3144 3146 3148 3149 3151 3153 3154 3156 3157 3158 3159 3159 3159 3160 3160 3161
3011 3014 3015 3019 3022 3025 3029 3033 3036 3039 3042 3046 3049 3050 3053 3057 3060 3061 3063 3064 3067 3068 3066 3066 3067 3066 3067 3067 3065 3066 3067 3069 3071 3072 3074 3075 3076 3078 3079 3081 3083 3085 3087 3089 3091 3093 3096 3098 3100 3102 3104 3107 3109 3111 3113 3116 3118 3121 3122 3124 3125 3127 3129 3131 3133 3135 3137 3139 3141 3142 3144 3145 3146 3148 3150 3152 3153 3155 3156 3157 3158 3158 3159 3159 3159 3160
3010 3013 3015 3017 3021 3025 3029 3033 3037 3039 3041 3043 3045 3049 3053 3058 3060 3060 3061 3064 3066 3067 3064 3063 3065 3065 3066 3065 3063 3063 3065 3067 3069 3070 3072 3073 3074 3076 3077 3079 3081 3083 3085 3088 3090 3092 3094 3096 3098 3100 3102 3105 3107 3110 3112 3114 3117 3120 3122 3123 3124 3126 3128 3130 3132 3133 3135 3138 3140 3142 3143 3144 3145 3147 3149 3151 3152 3154 3155 3156 3157 3157 3158 3158 3159 3159
3010 3013 3016 3018 3021 3025 3028 3033 3035 3037 3040 3042 3045 3049 3052 3054 3055 3057 3060 3062 3064 3066 3064 3062 3063 3063 3063 3063 3062 3062 3064 3066 3067 3069 3070 3071 3073 3074 3076 3078 3080 3082 3084 3085 3087 3089 3092 3094 3097 3098 3100 3103 3106 3108 3110 3113 3116 3119 3120 3122 3124 3126 3128 3130 3131 3132 3134 3136 3138 3140 3142 3144 3145 3146 3148 3150 3151 3152 3154 3155 3156 3156 3157 3157 3158 3158
3009 3013 3015 3017 3021 3024 3026 3028 3029 3031 3036 3041 3045 3047 3049 3051 3052 3055 3057 3058 3060 3064 3063 3062 3061 3060 3060 3061 3062 3062 3063 3065 3066 3067 3069 3070 3072 3073 3075 3077 3079 3080 3082 3083 3085 3088 3090 3093 3095 3097 3099 3101 3104 3106 3108 3111 3115 3117 3119 3121 3123 3124 3126 3128 3130 3132 3133 3134 3136 3137 3140 3142 3143 3145 3147 3148 3150 3151 3152 3154 3154 3155 3156 3156 3157 3157
3009 3011 3013 3016 3020 3022 3021 3020 3022 3026 3031 3036 3039 3041 3045 3048 3050 3053 3057 3057 3058 3060 3062 3062 3060 3058 3058 3060 3061 3061 3062 3063 3065 3066 3068 3069 3071 3073 3074 3076 3078 3079 3080 3082 3084 3087 3089 3091 3094 3095 3097 3100 3103 3105 3107 3110 3113 3116 3118 3120 3121 3123 3125 3127 3129 3130 3132 3133 3135 3136 3138 3140 3142 3144 3145 3147 3148 3149 3151 3152 3153 3154 3154 3155 3156 3156
3007 3009 3011 3013 3015 3016 3017 3019 3023 3028 3031 3034 3037 3039 3043 3046 3048 3052 3055 3055 3056 3058 3059 3060 3058 3056 3057 3059 3059 3060 3061 3062 3063 3065 3066 3067 3069 3071 3073 3075 3077 3079 3080 3082 3084 3086 3088 3090 3092 3094 3096 3099 3101 3104 3106 3109 3112 3114 3116 3118 3120 3121 3123 3125 3127 3129 3131 3132 3134 3135 3136 3138 3140 3142 3144 3145 3147 3148 3150 3151 3152 3152 3153 3154 3154 3155
3006 3008 3010 3011 3012 3015 3020 3023 3026 3030 3034 3037 3039 3040 3043 3046 3047 3049 3051 3054 3056 3057 3057 3058 3056 3054 3055 3057 3058 3059 3060 3060 3062 3063 3064 3066 3068 3070 3072 3074 3076 3078 3079 3081 3083 3085 3087 3089 3091 3093 3095 3098 3101 3103 3105 3108 3110 3113 3115 3117 3119 3120 3121 3123 3125 3127 3129 3131 3133 3134 3135 3137 3139 3140 3142 3143 3145 3147 3148 3149 3150 3151 3152 3153 3153 3153
3006 3007 3009 3011 3014 3019 3023 3025 3027 3031 3034 3036 3038 3039 3041 3043 3046 3048 3051 3053 3055 3056 3056 3057 3056 3053 3054 3055 3057 3058 3059 3060 3061 3062 3063 3064 3066 3069 3071 3073 3075 3077 3078 3079 3081 3083 3085 3087 3089 3092 3094 3097 3100 3102 3104 3107 3109 3111 3114 3115 3117 3119 3120 3122 3124 3126 3128 3130 3131 3132 3134 3135 3137 3139 3140 3142 3143 3145 3147 3148 3149 3149 3150 3151 3152 3152
3005 3007 3009 3011 3016 3021 3023 3024 3026 3028 3030 3031 3033 3036 3038 3042 3045 3048 3050 3052 3053 3054 3055 3056 3055 3053 3053 3055 3056 3057 3058 3059 3060 3062 3063 3064 3066 3069 3071 3073 3074 3075 3077 3078 3079 3082 3084 3086 3088 3091 3094 3096 3099 3101 3103 3105 3107 3109 3112 3114 3115 3117 3119 3120 3122 3124 3126 3128 3129 3131 3133 3134 3135 3137 3138 3140 3142 3144 3145 3146 3147 3148 3149 3150 3150 3151
3006 3008 3009 3010 3012 3015 3016 3017 3017 3019 3023 3027 3030 3033 3037 3040 3043 3046 3048 3049 3050 3052 3053 3054 3054 3053 3053 3054 3055 3056 3058 3059 3060 3061 3063 3064 3066 3068 3070 3072 3073 3074 3076 3077 3079 3081 3083 3086 3088 3090 3093 3095 3098 3100 3101 3103 3105 3108 3110 3112 3114 3115 3117 3119 3121 3123 3124 3126 3128 3129 3131 3132 3134 3135 3137 3139 3140 3142 3143 3144 3145 3146 3147 3148 3149 3149
3006 3007 3008 3009 3010 3011 3012 3013 3014 3017 3021 3024 3028 3032 3036 3039 3042 3045 3046 3047 3049 3051 3052 3052 3053 3053 3053 3054 3055 3056 3057 3058 3060 3061 3063 3065 3066 3068 3070 3071 3072 3074 3075 3077 3079 3081 3083 3085 3088 3090 3092 3094 3096 3098 3100 3102 3104 3106 3108 3110 3112 3114 3116 3118 3119 3121 3122 3124 3126 3127 3129 3130 3132 3133 3135 3137 3139 3140 3141 3142 3144 3145 3146 3147 3147 3148
3006 3007 3007 3009 3010 3011 3013 3016 3017 3019 3022 3024 3027 3031 3035 3038 3041 3043 3044 3046 3048 3050 3050 3050 3051 3052 3052 3053 3054 3056 3057 3059 3060 3062 3063 3065 3066 3068 3069 3070 3072 3073 3075 3076 3078 3080 3082 3085 3087 3089 3090 3092 3094 3096 3098 3100 3102 3104 3106 3108 3110 3112 3114 3116 3117 3119 3120 3122 3124 3125 3127 3128 3130 3131 3133 3135 3137 3138 3140 3141 3142 3143 3144 3145 3146 3146
3006 3006 3007 3008 3008 3010 3012 3015 3017 3019 3022 3025 3027 3030 3034 3037 3039 3041 3043 3045 3047 3048 3048 3049 3050 3051 3051 3053 3054 3054 3056 3057 3059 3061 3063 3064 3066 3067 3068 3069 3071 3073 3075 3076 3078 3079 3082 3084 3085 3087 3089 3091 3092 3094 3096 3098 3100 3102 3104 3106 3107 3110 3112 3114 3115 3117 3118 3120 3122 3123 3125 3126 3128 3129 3131 3133 3135 3137 3138 3139 3140 3141 3142 3143 3144 3145
3006 3006 3006 3007 3007 3008 3010 3013 3015 3018 3020 3023 3027 3030 3033 3036 3038 3041 3043 3044 3046 3047 3047 3048 3049 3049 3050 3052 3052 3053 3054 3056 3058 3060 3062 3063 3065 3066 3068 3069 3071 3073 3075 3076 3078 3079 3081 3083 3084 3086 3088 3089 3091 3093 3094 3096 3098 3100 3102 3104 3106 3108 3110 3112 3113 3115 3116 3118 3120 3121 3123 3124 3126 3128 3130 3132 3133 3135 3136 3137 3138 3140 3141 3141 3142 3143
3006 3005 3006 3006 3007 3008 3010 3012 3014 3016 3018 3022 3025 3029 3032 3035 3037 3039 3041 3042 3044 3045 3045 3047 3048 3049 3049 3050 3051 3052 3053 3055 3056 3058 3060 3062 3064 3066 3067 3069 3071 3073 3075 3076 3077 3079 3080 3082 3084 3085 3086 3088 3090 3091 3093 3095 3096 3098 3100 3102 3104 3106 3108 3110 3111 3113 3114 3116 3118 3119 3121 3122 3124 3126 3128 3130 3131 3132 3134 3135 3136 3138 3139 3140 3140 3141
3005 3005 3005 3006 3007 3007 3009 3012 3014 3016 3019 3021 3023 3026 3029 3032 3034 3036 3038 3040 3042 3043 3044 3046 3047 3048 3049 3050 3050 3051 3052 3053 3055 3057 3059 3062 3064 3066 3068 3069 3071 3073 3075 3076 3078 3079 3080 3082 3083 3084 3086 3087 3088 3090 3091 3093 3095 3096 3098 3100 3102 3104 3106 3108 3109 3111 3112 3114 3115 3117 3119 3120 3122 3124 3126 3127 3129 3130 3132 3133 3135 3136 3137 3138 3139 3139
3004 3005 3006 3007 3007 3007 3009 3011 3013 3016 3019 3021 3021 3024 3027 3030 3033 3035 3037 3039 3041 3042 3043 3045 3046 3047 3048 3049 3050 3051 3051 3052 3053 3055 3058 3061 3064 3066 3068 3070 3072 3073 3075 3076 3077 3079 3080 3081 3082 3084 3085 3086 3087 3088 3089 3091 3093 3094 3096 3098 3100 3102 3104 3105 3107 3109 3110 3112 3113 3115 3117 3118 3120 3122 3123 3125 3126 3128 3130 3131 3132 3134 3135 3136 3136 3137
3004 3005 3006 3007 3007 3007 3009 3011 3013 3017 3019 3019 3020 3024 3027 3030 3032 3034 3035 3038 3039 3041 3042 3044 3045 3047 3048 3049 3050 3050 3050 3051 3052 3053 3057 3061 3064 3066 3068 3070 3072 3073 3075 3076 3077 3078 3079 3080 3081 3082 3083 3084 3085 3086 3087 3089 3090 3092 3094 3095 3097 3099 3101 3103 3105 3107 3108 3110 3112 3113 3115 3117 3118 3120 3121 3123 3124 3126 3128 3129 3130 3132 3132 3133 3134 3134
3005 3006 3007 3007 3007 3007 3008 3010 3013 3017 3018 3017 3019 3023 3027 3029 3032 3033 3035 3036 3038 3040 3042 3043 3045 3047 3048 3049 3049 3050 3050 3051 3051 3053 3057 3060 3063 3066 3068 3069 3071 3073 3074 3074 3075 3076 3077 3078 3079 3080 3081 3081 3082 3083 3084 3086 3088 3089 3091 3092 3093 3096 3098 3101 3103 3105 3106 3108 3109 3111 3113 3115 3116 3118 3119 3120 3122 3124 3125 3127 3128 3129 3130 3131 3131 3132
3005 3006 3007 3007 3006 3007 3008 3010 3012 3015 3016 3017 3019 3022 3025 3028 3031 3032 3033 3035 3037 3039 3041 3042 3044 3046 3047 3049 3050 3051 3051 3052 3053 3055 3057 3060 3063 3065 3067 3069 3070 3071 3072 3073 3074 3074 3075 3075 3076 3077 3078 3079 3080 3081 3082 3084 3085 3087 3088 3090 3091 3094 3096 3098 3100 3102 3104 3105 3107 3109 3111 3113 3114 3115 3117 3118 3119 3121 3123 3124 3125 3126 3127 3128 3129 3129
3005 3006 3007 3007 3007 3007 3008 3009 3012 3014 3016 3018 3019 3021 3023 3026 3029 3031 3032 3034 3037 3039 3040 3041 3043 3045 3047 3048 3050 3051 3052 3053 3054 3056 3058 3060 3062 3064 3066 3067 3068 3069 3070 3071 3071 3072 3072 3072 3074 3075 3076 3077 3078 3079 3081 3082 3082 3085 3088 3089 3089 3092 3094 3095 3097 3099 3101 3102 3105 3107 3109 3110 3111 3112 3113 3114 3115 3116 3117 3119 3121 3123 3124 3125 3126 3127
3004 3005 3006 3007 3007 3007 3008 3010 3013 3016 3017 3018 3019 3020 3022 3025 3028 3030 3032 3033 3036 3038 3039 3041 3042 3044 3046 3048 3050 3051 3052 3054 3055 3056 3058 3060 3062 3064 3065 3067 3068 3068 3069 3069 3069 3070 3070 3071 3072 3073 3074 3075 3075 3076 3078 3078 3078 3082 3087 3088 3087 3089 3091 3093 3095 3096 3097 3099 3102 3104 3105 3106 3107 3108 3110 3111 3113 3114 3114 3116 3118 3120 3121 3122 3123 3124
3003 3003 3004 3007 3007 3007 3007 3009 3013 3016 3017 3017 3018 3020 3022 3025 3027 3030 3032 3033 3035 3037 3038 3040 3042 3044 3046 3048 3049 3051 3052 3054 3055 3057 3058 3060 3062 3063 3065 3066 3067 3068 3068 3068 3069 3069 3070 3070 3071 3072 3072 3073 3073 3074 3075 3075 3075 3077 3082 3085 3086 3087 3089 3091 3092 3092 3095 3097 3099 3100 3102 3103 3104 3106 3108 3110 3113 3114 3115 3116 3117 3118 3119 3120 3121 3122
3002 3003 3004 3006 3007 3007 3008 3009 3012 3014 3016 3017 3019 3020 3022 3024 3027 3029 3031 3032 3033 3036 3038 3039 3042 3044 3045 3047 3049 3050 3052 3054 3055 3057 3058 3060 3061 3063 3064 3065 3066 3067 3067 3068 3068 3069 3069 3069 3070 3070 3071 3071 3072 3073 3073 3073 3072 3072 3075 3080 3083 3084 3086 3087 3087 3088 3092 3095 3095 3097 3099 3101 3103 3104 3105 3106 3108 3109 3111 3114 3115 3116 3117 3118 3119 3120
3002 3004 3005 3006 3006 3007 3008 3010 3012 3014 3016 3017 3019 3020 3022 3024 3026 3027 3029 3031 3033 3035 3037 3039 3041 3043 3045 3047 3048 3050 3053 3054 3055 3057 3058 3059 3061 3062 3063 3064 3065 3066 3066 3067 3067 3067 3068 3068 3068 3069 3069 3069 3070 3071 3071 3072 3071 3071 3071 3074 3078 3081 3082 3082 3083 3086 3091 3092 3093 3095 3098 3099 3101 3101 3100 3102 3105 3105 3108 3111 3112 3113 3114 3115 3116 3117
3004 3005 3005 3006 3007 3008 3009 3011 3013 3014 3016 3018 3019 3020 3022 3023 3025 3026 3028 3030 3032 3034 3036 3038 3040 3042 3044 3046 3048 3050 3052 3053 3055 3056 3058 3059 3060 3061 3062 3063 3064 3064 3065 3065 3066 3066 3066 3066 3067 3067 3067 3068 3069 3069 3070 3070 3070 3070 3070 3072 3075 3077 3077 3078 3082 3086 3089 3091 3093 3095 3096 3097 3098 3098 3097 3100 3103 3104 3105 3107 3109 3110 3111 3112 3112 3114
3004 3005 3006 3007 3008 3009 3010 3012 3013 3015 3016 3018 3019 3021 3022 3023 3025 3026 3028 3030 3032 3034 3036 3038 3040 3042 3044 3046 3048 3049 3051 3052 3054 3056 3057 3058 3059 3060 3061 3062 3062 3063 3063 3064 3064 3064 3064 3065 3065 3065 3066 3067 3067 3068 3068 3069 3069 3069 3070 3071 3072 3074 3075 3078 3082 3084 3086 3089 3091 3092 3093 3094 3094 3095 3096 3098 3101 3102 3102 3103 3105 3106 3107 3109 3109 3111
3005 3006 3007 3008 3008 3009 3010 3012 3014 3015 3017 3018 3019 3021 3022 3023 3025 3026 3028 3030 3031 3033 3035 3037 3039 3041 3043 3045 3047 3049 3050 3052 3053 3055 3056 3057 3058 3059 3060 3060 3061 3061 3061 3062 3062 3062 3063 3063 3063 3063 3064 3065 3066 3066 3067 3067 3067 3068 3069 3070 3071 3073 3074 3077 3079 3081 3083 3086 3088 3090 3092 3091 3090 3092 3095 3097 3098 3098 3098 3099 3101 3102 3104 3105 3106 3108
3006 3007 3007 3008 3009 3010 3011 3012 3014 3016 3017 3018 3019 3021 3022 3023 3024 3026 3028 3029 3031 3033 3035 3036 3038 3040 3042 3044 3046 3048 3050 3051 3053 3054 3055 3056 3057 3057 3058 3059 3059 3060 3060 3060 3061 3061 3061 3061 3061 3061 3062 3063 3064 3064 3065 3065 3065 3066 3068 3070 3071 3072 3073 3075 3077 3080 3082 3084 3086 3088 3089 3087 3087 3090 3092 3093 3094 3095 3095 3096 3097 3099 3101 3102 3103 3105
3007 3007 3008 3009 3010 3011 3012 3014 3015 3016 3017 3019 3020 3021 3022 3023 3024 3026 3028 3030 3031 3033 3034 3036 3037 3039 3041 3043 3045 3047 3049 3050 3051 3053 3054 3055 3055 3056 3057 3057 3058 3058 3059 3059 3059 3059 3059 3059 3059 3060 3060 3061 3062 3062 3062 3063 3063 3065 3068 3069 3070 3071 3072 3074 3077 3079 3081 3082 3084 3085 3085 3085 3086 3088 3089 3089 3090 3091 3092 3092 3093 3095 3097 3098 3100 3102
3007 3008 3009 3010 3011 3012 3013 3015 3016 3017 3018 3019 3020 3021 3022 3023 3025 3026 3028 3030 3031 3033 3034 3035 3036 3038 3040 3042 3044 3046 3047 3049 3050 3052 3053 3053 3054 3055 3055 3056 3056 3057 3057 3057 3058 3058 3058 3057 3057 3058 3059 3059 3060 3060 3060 3061 3062 3065 3067 3068 3069 3070 3071 3073 3076 3078 3079 3080 3081 3082 3083 3084 3085 3085 3085 3086 3087 3087 3088 3089 3090 3092 3094 3095 3097 3099
3007 3009 3010 3011 3012 3013 3014 3015 3016 3017 3018 3019 3020 3021 3022 3023 3025 3026 3028 3030 3031 3032 3033 3034 3036 3037 3039 3041 3043 3044 3046 3047 3049 3050 3051 3052 3053 3053 3054 3054 3054 3055 3055 3055 3056 3056 3056 3056 3056 3056 3057 3058 3058 3058 3058 3060 3062 3065 3066 3067 3068 3069 3070 3072 3074 3075 3076 3077 3079 3080 3081 3082 3082 3082 3083 3083 3084 3084 3085 3086 3087 3089 3091 3092 3094 3096
3007 3009 3010 3011 3012 3013 3014 3015 3017 3018 3019 3019 3020 3021 3022 3024 3025 3027 3028 3029 3031 3032 3033 3034 3035 3037 3038 3040 3041 3042 3044 3045 3047 3048 3049 3050 3051 3051 3052 3052 3053 3053 3053 3054 3054 3054 3054 3054 3054 3054 3055 3055 3056 3056 3057 3059 3061 3063 3065 3066 3066 3067 3069 3071 3073 3073 3074 3075 3076 3077 3078 3079 3079 3080 3080 3080 3080 3081 3082 3083 3085 3086 3088 3090 3091 3094
3008 3009 3010 3012 3013 3014 3015 3016 3017 3018 3019 3020 3021 3022 3023 3024 3025 3026 3028 3029 3030 3031 3032 3033 3035 3036 3037 3038 3040 3040 3042 3043 3045 3046 3047 3048 3049 3049 3050 3051 3051 3051 3052 3052 3052 3052 3052 3052 3053 3053 3053 3053 3054 3054 3056 3059 3061 3062 3063 3064 3065 3066 3067 3069 3071 3071 3072 3074 3074 3075 3076 3076 3076 3077 3078 3078 3078 3078 3080 3081 3083 3084 3085 3087 3089 3091
3008 3009 3011 3012 3013 3014 3015 3016 3017 3019 3020 3021 3022 3023 3024 3025 3026 3027 3028 3029 3030 3031 3032 3033 3034 3035 3036 3037 3038 3039 3040 3041 3042 3043 3044 3045 3046 3047 3048 3049 3050 3050 3050 3050 3050 3050 3051 3051 3051 3052 3052 3052 3052 3054 3056 3058 3060 3061 3061 3062 3063 3065 3066 3067 3068 3069 3070 3071 3072 3073 3073 3073 3074 3075 3075 3075 3076 3076 3077 3079 3080 3081 3082 3084 3086 3088